Time,TemperatureF,DewpointF,PressureIn,WindDirection,WindDirectionDegrees,WindSpeedMPH,WindSpeedGustMPH,Humidity,HourlyPrecipIn,Conditions,Clouds,dailyrainin,SoftwareType,DateUTC
2013-12-13 00:00:00,8.9,5.3,30.24,West,266,0.0,7.0,85,0.00,,---,0.00,VWS V14.01,2013-12-13 06:00:00,
2013-12-13 00:03:00,8.9,5.3,30.24,West,267,0.0,5.0,85,0.00,,---,0.00,VWS V14.01,2013-12-13 06:03:00,
2013-12-13 00:08:00,8.9,5.3,30.24,West,259,0.0,5.0,85,0.00,,---,0.00,VWS V14.01,2013-12-13 06:08:00,
2013-12-13 00:13:00,8.9,5.3,30.24,West,259,0.0,5.0,85,0.00,,---,0.00,VWS V14.01,2013-12-13 06:13:00,
2013-12-13 00:18:00,8.9,5.3,30.24,West,276,0.0,5.0,85,0.00,,---,0.00,VWS V14.01,2013-12-13 06:18:00,
2013-12-13 00:23:00,8.9,5.3,30.24,WNW,292,2.0,5.0,85,0.00,,---,0.00,VWS V14.01,2013-12-13 06:23:00,
2013-12-13 00:28:00,8.8,5.5,30.24,West,269,0.0,5.0,86,0.00,,---,0.00,VWS V14.01,2013-12-13 06:28:00,
2013-12-13 00:30:00,8.8,5.5,30.23,West,265,0.0,5.0,86,0.00,,---,0.00,VWS V14.01,2013-12-13 06:30:00,
2013-12-13 00:33:00,8.8,5.7,30.23,WNW,296,2.0,2.0,87,0.00,,---,0.00,VWS V14.01,2013-12-13 06:33:00,
2013-12-13 00:38:00,8.7,5.6,30.23,West,281,0.0,2.0,87,0.00,,---,0.00,VWS V14.01,2013-12-13 06:38:00,
2013-12-13 00:43:00,8.7,5.6,30.23,West,261,0.0,4.0,87,0.00,,---,0.00,VWS V14.01,2013-12-13 06:43:00,
2013-12-13 00:48:00,8.6,5.5,30.23,West,277,2.0,6.0,87,0.00,,---,0.00,VWS V14.01,2013-12-13 06:48:00,
2013-12-13 00:53:00,8.5,5.4,30.23,West,264,0.0,6.0,87,0.00,,---,0.00,VWS V14.01,2013-12-13 06:53:00,
2013-12-13 00:58:00,8.5,5.4,30.23,West,271,0.0,6.0,87,0.00,,---,0.00,VWS V14.01,2013-12-13 06:58:00,
2013-12-13 01:00:00,8.5,5.4,30.23,West,277,1.0,6.0,87,0.00,,---,0.00,VWS V14.01,2013-12-13 07:00:00,
2013-12-13 01:03:00,8.5,5.4,30.23,WNW,287,0.0,3.0,87,0.00,,---,0.00,VWS V14.01,2013-12-13 07:03:00,
2013-12-13 01:08:00,8.5,5.4,30.23,WSW,257,0.0,3.0,87,0.00,,---,0.00,VWS V14.01,2013-12-13 07:08:00,
2013-12-13 01:13:00,8.4,5.3,30.23,West,259,1.0,3.0,87,0.00,,---,0.00,VWS V14.01,2013-12-13 07:13:00,
2013-12-13 01:19:00,8.4,5.3,30.23,WNW,287,0.0,3.0,87,0.00,,---,0.00,VWS V14.01,2013-12-13 07:19:00,
2013-12-13 01:24:00,8.3,5.2,30.23,NW,306,0.0,3.0,87,0.00,,---,0.00,VWS V14.01,2013-12-13 07:24:00,
2013-12-13 01:29:00,8.3,5.2,30.23,WNW,288,1.0,3.0,87,0.00,,---,0.00,VWS V14.01,2013-12-13 07:29:00,
2013-12-13 01:30:00,8.3,5.2,30.23,West,280,3.0,3.0,87,0.00,,---,0.00,VWS V14.01,2013-12-13 07:30:00,
2013-12-13 01:34:00,8.3,5.2,30.23,West,271,0.0,3.0,87,0.00,,---,0.00,VWS V14.01,2013-12-13 07:34:00,
2013-12-13 01:39:00,8.2,5.1,30.23,West,266,0.0,3.0,87,0.00,,---,0.00,VWS V14.01,2013-12-13 07:39:00,
2013-12-13 01:44:00,8.2,5.1,30.23,West,274,0.0,3.0,87,0.00,,---,0.00,VWS V14.01,2013-12-13 07:44:00,
2013-12-13 01:49:00,8.1,5.0,30.23,West,281,2.0,4.0,87,0.00,,---,0.00,VWS V14.01,2013-12-13 07:49:00,
2013-12-13 01:54:00,8.1,5.0,30.23,WNW,286,0.0,4.0,87,0.00,,---,0.00,VWS V14.01,2013-12-13 07:54:00,
2013-12-13 01:59:00,8.0,4.9,30.23,West,261,0.0,4.0,87,0.00,,---,0.00,VWS V14.01,2013-12-13 07:59:00,
2013-12-13 02:00:00,8.0,4.9,30.23,West,267,0.0,4.0,87,0.00,,---,0.00,VWS V14.01,2013-12-13 08:00:00,
2013-12-13 02:04:00,8.0,4.9,30.23,WNW,287,1.0,1.0,87,0.00,,---,0.00,VWS V14.01,2013-12-13 08:04:00,
2013-12-13 02:09:00,7.9,4.8,30.23,West,265,0.0,1.0,87,0.00,,---,0.00,VWS V14.01,2013-12-13 08:09:00,
2013-12-13 02:14:00,7.9,4.8,30.23,West,263,0.0,1.0,87,0.00,,---,0.00,VWS V14.01,2013-12-13 08:14:00,
2013-12-13 02:19:00,7.8,4.7,30.23,WNW,291,0.0,2.0,87,0.00,,---,0.00,VWS V14.01,2013-12-13 08:19:00,
2013-12-13 02:24:00,7.7,4.7,30.23,WNW,287,1.0,2.0,87,0.00,,---,0.00,VWS V14.01,2013-12-13 08:24:00,
2013-12-13 02:29:00,7.7,4.7,30.23,WNW,282,0.0,2.0,87,0.00,,---,0.00,VWS V14.01,2013-12-13 08:29:00,
2013-12-13 02:30:00,7.7,4.7,30.24,West,274,0.0,2.0,87,0.00,,---,0.00,VWS V14.01,2013-12-13 08:30:00,
2013-12-13 02:34:00,7.6,4.6,30.24,West,277,1.0,2.0,87,0.00,,---,0.00,VWS V14.01,2013-12-13 08:34:00,
2013-12-13 02:39:00,7.6,4.6,30.24,West,269,0.0,2.0,87,0.00,,---,0.00,VWS V14.01,2013-12-13 08:39:00,
2013-12-13 02:44:00,7.6,4.6,30.24,West,265,0.0,2.0,87,0.00,,---,0.00,VWS V14.01,2013-12-13 08:44:00,
2013-12-13 02:50:00,7.6,4.6,30.25,West,274,0.0,3.0,87,0.00,,---,0.00,VWS V14.01,2013-12-13 08:50:00,
2013-12-13 02:55:00,7.5,4.4,30.25,West,279,0.0,3.0,87,0.00,,---,0.00,VWS V14.01,2013-12-13 08:55:00,
2013-12-13 03:00:00,7.6,4.6,30.25,WNW,286,0.0,3.0,87,0.00,,---,0.00,VWS V14.01,2013-12-13 09:00:00,
2013-12-13 03:05:00,7.5,4.7,30.24,West,276,0.0,0.0,88,0.00,,---,0.00,VWS V14.01,2013-12-13 09:05:00,
2013-12-13 03:10:00,7.4,4.6,30.24,West,264,0.0,1.0,88,0.00,,---,0.00,VWS V14.01,2013-12-13 09:10:00,
2013-12-13 03:15:00,7.4,4.6,30.24,WNW,287,0.0,1.0,88,0.00,,---,0.00,VWS V14.01,2013-12-13 09:15:00,
2013-12-13 03:20:00,7.3,4.5,30.23,West,280,0.0,1.0,88,0.00,,---,0.00,VWS V14.01,2013-12-13 09:20:00,
2013-12-13 03:25:00,7.3,4.5,30.23,West,279,0.0,1.0,88,0.00,,---,0.00,VWS V14.01,2013-12-13 09:25:00,
2013-12-13 03:30:00,7.3,4.5,30.24,WNW,297,0.0,1.0,88,0.00,,---,0.00,VWS V14.01,2013-12-13 09:30:00,
2013-12-13 03:35:00,7.2,4.4,30.24,West,272,0.0,0.0,88,0.00,,---,0.00,VWS V14.01,2013-12-13 09:35:00,
2013-12-13 03:40:00,7.2,4.4,30.24,SW,234,0.0,0.0,88,0.00,,---,0.00,VWS V14.01,2013-12-13 09:40:00,
2013-12-13 03:45:00,7.2,4.4,30.24,West,271,0.0,0.0,88,0.00,,---,0.00,VWS V14.01,2013-12-13 09:45:00,
2013-12-13 03:50:00,7.2,4.4,30.24,WSW,254,0.0,0.0,88,0.00,,---,0.00,VWS V14.01,2013-12-13 09:50:00,
2013-12-13 03:55:00,7.2,4.4,30.24,West,267,0.0,0.0,88,0.00,,---,0.00,VWS V14.01,2013-12-13 09:55:00,
2013-12-13 04:00:00,7.2,4.4,30.25,West,267,0.0,0.0,88,0.00,,---,0.00,VWS V14.01,2013-12-13 10:00:00,
2013-12-13 04:05:00,7.2,4.4,30.25,West,272,0.0,0.0,88,0.00,,---,0.00,VWS V14.01,2013-12-13 10:05:00,
2013-12-13 04:10:00,7.3,4.5,30.25,West,277,0.0,0.0,88,0.00,,---,0.00,VWS V14.01,2013-12-13 10:10:00,
2013-12-13 04:15:00,7.2,4.4,30.24,West,277,0.0,0.0,88,0.00,,---,0.00,VWS V14.01,2013-12-13 10:15:00,
2013-12-13 04:20:00,7.2,4.4,30.24,West,277,0.0,0.0,88,0.00,,---,0.00,VWS V14.01,2013-12-13 10:20:00,
2013-12-13 04:26:00,7.2,4.4,30.24,West,277,0.0,0.0,88,0.00,,---,0.00,VWS V14.01,2013-12-13 10:26:00,
2013-12-13 04:30:00,7.2,4.4,30.24,West,277,0.0,0.0,88,0.00,,---,0.00,VWS V14.01,2013-12-13 10:30:00,
2013-12-13 04:31:00,7.2,4.4,30.24,West,277,0.0,0.0,88,0.00,,---,0.00,VWS V14.01,2013-12-13 10:31:00,
2013-12-13 04:36:00,7.1,4.3,30.24,West,277,0.0,0.0,88,0.00,,---,0.00,VWS V14.01,2013-12-13 10:36:00,
2013-12-13 04:41:00,7.0,4.2,30.24,West,277,0.0,0.0,88,0.00,,---,0.00,VWS V14.01,2013-12-13 10:41:00,
2013-12-13 04:46:00,6.9,4.1,30.24,West,277,0.0,0.0,88,0.00,,---,0.00,VWS V14.01,2013-12-13 10:46:00,
2013-12-13 04:51:00,6.7,3.9,30.24,West,277,0.0,0.0,88,0.00,,---,0.00,VWS V14.01,2013-12-13 10:51:00,
2013-12-13 04:56:00,6.6,3.8,30.24,NNW,342,0.0,0.0,88,0.00,,---,0.00,VWS V14.01,2013-12-13 10:56:00,
2013-12-13 05:00:00,6.5,4.0,30.24,West,277,0.0,0.0,89,0.00,,---,0.00,VWS V14.01,2013-12-13 11:00:00,
2013-12-13 05:01:00,6.5,4.0,30.24,West,277,0.0,0.0,89,0.00,,---,0.00,VWS V14.01,2013-12-13 11:01:00,
2013-12-13 05:06:00,6.5,4.0,30.24,West,277,0.0,0.0,89,0.00,,---,0.00,VWS V14.01,2013-12-13 11:06:00,
2013-12-13 05:11:00,6.4,3.9,30.24,NW,326,0.0,0.0,89,0.00,,---,0.00,VWS V14.01,2013-12-13 11:11:00,
2013-12-13 05:16:00,6.5,4.0,30.24,NW,326,0.0,0.0,89,0.00,,---,0.00,VWS V14.01,2013-12-13 11:16:00,
2013-12-13 05:21:00,6.5,4.0,30.24,NW,311,0.0,0.0,89,0.00,,---,0.00,VWS V14.01,2013-12-13 11:21:00,
2013-12-13 05:26:00,6.7,4.2,30.24,NNE,28,0.0,0.0,89,0.00,,---,0.00,VWS V14.01,2013-12-13 11:26:00,
2013-12-13 05:30:00,6.8,4.5,30.24,ENE,58,0.0,0.0,90,0.00,,---,0.00,VWS V14.01,2013-12-13 11:30:00,
2013-12-13 05:31:00,6.8,4.5,30.24,ENE,57,0.0,0.0,90,0.00,,---,0.00,VWS V14.01,2013-12-13 11:31:00,
2013-12-13 05:36:00,6.8,4.2,30.24,West,266,0.0,0.0,89,0.00,,---,0.00,VWS V14.01,2013-12-13 11:36:00,
2013-12-13 05:41:00,6.8,4.2,30.24,West,271,0.0,0.0,89,0.00,,---,0.00,VWS V14.01,2013-12-13 11:41:00,
2013-12-13 05:46:00,6.9,4.3,30.25,ENE,72,0.0,0.0,89,0.00,,---,0.00,VWS V14.01,2013-12-13 11:46:00,
2013-12-13 05:51:00,6.8,4.2,30.25,North,360,0.0,0.0,89,0.00,,---,0.00,VWS V14.01,2013-12-13 11:51:00,
2013-12-13 05:57:00,6.8,4.0,30.25,NE,44,0.0,0.0,88,0.00,,---,0.00,VWS V14.01,2013-12-13 11:57:00,
2013-12-13 06:00:00,6.9,4.1,30.26,NE,44,0.0,0.0,88,0.00,,---,0.00,VWS V14.01,2013-12-13 12:00:00,
2013-12-13 06:02:00,6.9,4.1,30.26,NE,44,0.0,0.0,88,0.00,,---,0.00,VWS V14.01,2013-12-13 12:02:00,
2013-12-13 06:07:00,6.9,4.1,30.26,NE,44,0.0,0.0,88,0.00,,---,0.00,VWS V14.01,2013-12-13 12:07:00,
2013-12-13 06:12:00,6.9,4.1,30.26,NNW,340,0.0,0.0,88,0.00,,---,0.00,VWS V14.01,2013-12-13 12:12:00,
2013-12-13 06:17:00,6.9,4.1,30.27,WNW,283,0.0,0.0,88,0.00,,---,0.00,VWS V14.01,2013-12-13 12:17:00,
2013-12-13 06:22:00,6.7,3.7,30.27,NE,49,0.0,0.0,87,0.00,,---,0.00,VWS V14.01,2013-12-13 12:22:00,
2013-12-13 06:24:00,6.7,3.7,30.27,NE,34,0.0,0.0,87,0.00,,---,0.00,VWS V14.01,2013-12-13 12:24:00,
2013-12-13 06:29:00,6.5,3.2,30.27,NNE,20,0.0,0.0,86,0.00,,---,0.00,VWS V14.01,2013-12-13 12:29:00,
2013-12-13 06:30:00,6.4,2.9,30.27,East,91,0.0,0.0,85,0.00,,---,0.00,VWS V14.01,2013-12-13 12:30:00,
2013-12-13 06:34:00,6.3,2.8,30.27,NE,40,0.0,0.0,85,0.00,,---,0.00,VWS V14.01,2013-12-13 12:34:00,
2013-12-13 06:39:00,6.2,2.7,30.27,NE,38,0.0,0.0,85,0.00,,---,0.00,VWS V14.01,2013-12-13 12:39:00,
2013-12-13 06:44:00,6.2,2.7,30.27,ENE,63,0.0,0.0,85,0.00,,---,0.00,VWS V14.01,2013-12-13 12:44:00,
2013-12-13 06:49:00,6.1,2.6,30.28,NW,323,0.0,0.0,85,0.00,,---,0.00,VWS V14.01,2013-12-13 12:49:00,
2013-12-13 06:54:00,6.1,2.8,30.28,NE,53,0.0,0.0,86,0.00,,---,0.00,VWS V14.01,2013-12-13 12:54:00,
2013-12-13 06:59:00,6.1,2.8,30.28,ENE,59,0.0,0.0,86,0.00,,---,0.00,VWS V14.01,2013-12-13 12:59:00,
2013-12-13 07:00:00,6.1,2.8,30.28,NE,37,0.0,0.0,86,0.00,,---,0.00,VWS V14.01,2013-12-13 13:00:00,
2013-12-13 07:04:00,6.0,2.7,30.28,NE,36,0.0,0.0,86,0.00,,---,0.00,VWS V14.01,2013-12-13 13:04:00,
2013-12-13 07:09:00,5.9,2.4,30.28,East,80,0.0,0.0,85,0.00,,---,0.00,VWS V14.01,2013-12-13 13:09:00,
2013-12-13 07:14:00,5.9,2.4,30.28,NNE,22,0.0,0.0,85,0.00,,---,0.00,VWS V14.01,2013-12-13 13:14:00,
2013-12-13 07:20:00,5.8,2.3,30.28,ENE,68,0.0,0.0,85,0.00,,---,0.00,VWS V14.01,2013-12-13 13:20:00,
2013-12-13 07:25:00,5.8,2.3,30.28,ENE,57,0.0,0.0,85,0.00,,---,0.00,VWS V14.01,2013-12-13 13:25:00,
2013-12-13 07:30:00,5.8,2.3,30.28,ENE,60,0.0,0.0,85,0.00,,---,0.00,VWS V14.01,2013-12-13 13:30:00,
2013-12-13 07:35:00,5.7,2.2,30.29,ENE,57,0.0,0.0,85,0.00,,---,0.00,VWS V14.01,2013-12-13 13:35:00,
2013-12-13 07:40:00,5.6,1.8,30.29,NNE,12,0.0,0.0,84,0.00,,---,0.00,VWS V14.01,2013-12-13 13:40:00,
2013-12-13 07:45:00,5.5,1.7,30.29,NNE,30,0.0,0.0,84,0.00,,---,0.00,VWS V14.01,2013-12-13 13:45:00,
2013-12-13 07:50:00,5.5,1.5,30.29,NNE,12,0.0,0.0,83,0.00,,---,0.00,VWS V14.01,2013-12-13 13:50:00,
2013-12-13 07:55:00,5.4,1.4,30.29,NNE,22,0.0,0.0,83,0.00,,---,0.00,VWS V14.01,2013-12-13 13:55:00,
2013-12-13 08:00:00,5.5,1.5,30.30,ENE,61,0.0,0.0,83,0.00,,---,0.00,VWS V14.01,2013-12-13 14:00:00,
2013-12-13 08:05:00,5.5,1.7,30.30,NE,37,0.0,0.0,84,0.00,,---,0.00,VWS V14.01,2013-12-13 14:05:00,
2013-12-13 08:10:00,5.6,1.8,30.30,East,86,0.0,0.0,84,0.00,,---,0.00,VWS V14.01,2013-12-13 14:10:00,
2013-12-13 08:15:00,5.6,1.8,30.30,ENE,65,0.0,0.0,84,0.00,,---,0.00,VWS V14.01,2013-12-13 14:15:00,
2013-12-13 08:20:00,5.6,1.6,30.30,ENE,64,0.0,0.0,83,0.00,,---,0.00,VWS V14.01,2013-12-13 14:20:00,
2013-12-13 08:25:00,5.7,1.9,30.30,NE,38,0.0,0.0,84,0.00,,---,0.00,VWS V14.01,2013-12-13 14:25:00,
2013-12-13 08:30:00,5.7,1.7,30.30,WNW,286,0.0,0.0,83,0.00,,---,0.00,VWS V14.01,2013-12-13 14:30:00,
2013-12-13 08:35:00,5.7,1.7,30.30,East,80,0.0,0.0,83,0.00,,---,0.00,VWS V14.01,2013-12-13 14:35:00,
2013-12-13 08:42:00,5.7,1.7,30.30,ENE,75,0.0,0.0,83,0.00,,---,0.00,VWS V14.01,2013-12-13 14:42:00,
2013-12-13 08:47:00,5.6,1.6,30.31,ENE,66,0.0,0.0,83,0.00,,---,0.00,VWS V14.01,2013-12-13 14:47:00,
2013-12-13 08:52:00,5.6,1.3,30.31,NNW,344,0.0,0.0,82,0.00,,---,0.00,VWS V14.01,2013-12-13 14:52:00,
2013-12-13 08:57:00,5.7,1.1,30.31,ESE,106,0.0,0.0,81,0.00,,---,0.00,VWS V14.01,2013-12-13 14:57:00,
2013-12-13 09:02:00,5.8,1.2,30.32,ENE,78,0.0,0.0,81,0.00,,---,0.00,VWS V14.01,2013-12-13 15:02:00,
2013-12-13 09:07:00,5.8,1.0,30.32,East,79,0.0,0.0,80,0.00,,---,0.00,VWS V14.01,2013-12-13 15:07:00,
2013-12-13 09:12:00,5.8,1.0,30.32,East,98,0.0,0.0,80,0.00,,---,0.00,VWS V14.01,2013-12-13 15:12:00,
2013-12-13 09:17:00,5.9,0.8,30.32,ESE,102,0.0,0.0,79,0.00,,---,0.00,VWS V14.01,2013-12-13 15:17:00,
2013-12-13 09:22:00,5.9,1.1,30.32,NNE,20,0.0,0.0,80,0.00,,---,0.00,VWS V14.01,2013-12-13 15:22:00,
2013-12-13 09:28:00,6.0,1.2,30.32,NE,53,0.0,0.0,80,0.00,,---,0.00,VWS V14.01,2013-12-13 15:28:00,
2013-12-13 09:33:00,6.1,1.3,30.32,NE,47,0.0,0.0,80,0.00,,---,0.00,VWS V14.01,2013-12-13 15:33:00,
2013-12-13 09:38:00,6.1,1.3,30.32,NE,53,0.0,0.0,80,0.00,,---,0.00,VWS V14.01,2013-12-13 15:38:00,
2013-12-13 09:43:00,6.1,1.5,30.32,NE,36,0.0,0.0,81,0.00,,---,0.00,VWS V14.01,2013-12-13 15:43:00,
2013-12-13 09:48:00,6.3,1.7,30.33,East,90,0.0,0.0,81,0.00,,---,0.00,VWS V14.01,2013-12-13 15:48:00,
2013-12-13 09:53:00,6.2,1.4,30.33,ENE,66,0.0,0.0,80,0.00,,---,0.00,VWS V14.01,2013-12-13 15:53:00,
2013-12-13 09:58:00,6.2,1.4,30.33,East,88,0.0,0.0,80,0.00,,---,0.00,VWS V14.01,2013-12-13 15:58:00,
2013-12-13 10:03:00,6.2,1.4,30.33,ENE,58,0.0,0.0,80,0.00,,---,0.00,VWS V14.01,2013-12-13 16:03:00,
2013-12-13 10:09:00,6.3,1.7,30.33,East,84,0.0,0.0,81,0.00,,---,0.00,VWS V14.01,2013-12-13 16:09:00,
2013-12-13 10:14:00,6.3,1.5,30.33,ENE,61,0.0,0.0,80,0.00,,---,0.00,VWS V14.01,2013-12-13 16:14:00,
2013-12-13 10:19:00,6.2,1.4,30.34,ENE,78,0.0,0.0,80,0.00,,---,0.00,VWS V14.01,2013-12-13 16:19:00,
2013-12-13 10:24:00,6.2,1.6,30.34,East,101,0.0,0.0,81,0.00,,---,0.00,VWS V14.01,2013-12-13 16:24:00,
2013-12-13 10:29:00,6.3,1.7,30.34,East,91,0.0,0.0,81,0.00,,---,0.00,VWS V14.01,2013-12-13 16:29:00,
2013-12-13 10:34:00,6.4,1.8,30.35,ESE,113,0.0,0.0,81,0.00,,---,0.00,VWS V14.01,2013-12-13 16:34:00,
2013-12-13 10:39:00,6.5,1.4,30.35,East,96,0.0,0.0,79,0.00,,---,0.00,VWS V14.01,2013-12-13 16:39:00,
2013-12-13 10:44:00,6.6,1.2,30.35,ESE,115,0.0,0.0,78,0.00,,---,0.00,VWS V14.01,2013-12-13 16:44:00,
2013-12-13 10:49:00,6.8,1.4,30.34,NNE,15,0.0,0.0,78,0.00,,---,0.00,VWS V14.01,2013-12-13 16:49:00,
2013-12-13 10:54:00,7.0,1.6,30.34,NE,55,0.0,0.0,78,0.00,,---,0.00,VWS V14.01,2013-12-13 16:54:00,
2013-12-13 10:59:00,6.8,1.1,30.34,East,94,0.0,0.0,77,0.00,,---,0.00,VWS V14.01,2013-12-13 16:59:00,
2013-12-13 11:04:00,6.6,0.4,30.34,ESE,102,0.0,0.0,75,0.00,,---,0.00,VWS V14.01,2013-12-13 17:04:00,
2013-12-13 11:09:00,6.5,0.6,30.34,NE,39,0.0,0.0,76,0.00,,---,0.00,VWS V14.01,2013-12-13 17:09:00,
2013-12-13 11:14:00,6.5,0.8,30.34,NW,310,0.0,0.0,77,0.00,,---,0.00,VWS V14.01,2013-12-13 17:14:00,
2013-12-13 11:19:00,6.5,0.8,30.34,ENE,78,0.0,0.0,77,0.00,,---,0.00,VWS V14.01,2013-12-13 17:19:00,
2013-12-13 11:24:00,6.5,0.8,30.34,ENE,63,0.0,0.0,77,0.00,,---,0.00,VWS V14.01,2013-12-13 17:24:00,
2013-12-13 11:29:00,6.4,0.5,30.34,East,91,0.0,0.0,76,0.00,,---,0.00,VWS V14.01,2013-12-13 17:29:00,
2013-12-13 11:35:00,6.4,0.5,30.33,ENE,78,0.0,0.0,76,0.00,,---,0.00,VWS V14.01,2013-12-13 17:35:00,
2013-12-13 11:40:00,6.3,0.4,30.33,NE,55,0.0,0.0,76,0.00,,---,0.00,VWS V14.01,2013-12-13 17:40:00,
2013-12-13 11:45:00,6.3,0.1,30.33,East,82,0.0,0.0,75,0.00,,---,0.00,VWS V14.01,2013-12-13 17:45:00,
2013-12-13 11:50:00,6.5,0.6,30.33,ENE,69,0.0,0.0,76,0.00,,---,0.00,VWS V14.01,2013-12-13 17:50:00,
2013-12-13 11:55:00,6.7,0.8,30.33,ENE,59,0.0,2.0,76,0.00,,---,0.00,VWS V14.01,2013-12-13 17:55:00,
2013-12-13 12:00:00,6.7,0.5,30.33,NE,49,0.0,2.0,75,0.00,,---,0.00,VWS V14.01,2013-12-13 18:00:00,
2013-12-13 12:05:00,6.8,0.9,30.32,ENE,59,2.0,2.0,76,0.00,,---,0.00,VWS V14.01,2013-12-13 18:05:00,
2013-12-13 12:10:00,6.7,0.8,30.32,ENE,64,2.0,7.0,76,0.00,,---,0.00,VWS V14.01,2013-12-13 18:10:00,
2013-12-13 12:15:00,6.9,1.2,30.32,NNE,20,0.0,7.0,77,0.00,,---,0.00,VWS V14.01,2013-12-13 18:15:00,
2013-12-13 12:20:00,7.4,1.7,30.32,NE,55,2.0,7.0,77,0.00,,---,0.00,VWS V14.01,2013-12-13 18:20:00,
2013-12-13 12:25:00,7.1,0.9,30.32,ENE,57,2.0,7.0,75,0.00,,---,0.00,VWS V14.01,2013-12-13 18:25:00,
2013-12-13 12:30:00,6.9,0.7,30.32,East,85,0.0,7.0,75,0.00,,---,0.00,VWS V14.01,2013-12-13 18:30:00,
2013-12-13 12:35:00,6.7,0.5,30.32,NE,51,0.0,2.0,75,0.00,,---,0.00,VWS V14.01,2013-12-13 18:35:00,
2013-12-13 12:40:00,7.1,1.1,30.32,NNE,24,1.0,2.0,76,0.00,,---,0.00,VWS V14.01,2013-12-13 18:40:00,
2013-12-13 12:45:00,7.0,0.5,30.33,ENE,61,1.0,3.0,74,0.00,,---,0.00,VWS V14.01,2013-12-13 18:45:00,
2013-12-13 12:50:00,7.1,0.9,30.33,ENE,57,1.0,6.0,75,0.00,,---,0.00,VWS V14.01,2013-12-13 18:50:00,
2013-12-13 12:55:00,7.0,0.5,30.33,NNW,335,0.0,6.0,74,0.00,,---,0.00,VWS V14.01,2013-12-13 18:55:00,
2013-12-13 13:01:00,7.0,0.8,30.33,West,275,0.0,6.0,75,0.00,,---,0.00,VWS V14.01,2013-12-13 19:01:00,
2013-12-13 13:06:00,7.1,1.1,30.33,NE,51,1.0,5.0,76,0.00,,---,0.00,VWS V14.01,2013-12-13 19:06:00,
2013-12-13 13:11:00,7.0,0.8,30.33,NE,49,1.0,5.0,75,0.00,,---,0.00,VWS V14.01,2013-12-13 19:11:00,
2013-12-13 13:16:00,7.1,1.1,30.32,East,82,1.0,5.0,76,0.00,,---,0.00,VWS V14.01,2013-12-13 19:16:00,
2013-12-13 13:21:00,7.2,1.0,30.32,NE,43,2.0,6.0,75,0.00,,---,0.00,VWS V14.01,2013-12-13 19:21:00,
2013-12-13 13:26:00,7.1,0.9,30.32,NW,317,1.0,6.0,75,0.00,,---,0.00,VWS V14.01,2013-12-13 19:26:00,
2013-12-13 13:31:00,7.3,1.0,30.33,ENE,76,2.0,6.0,75,0.00,,---,0.00,VWS V14.01,2013-12-13 19:31:00,
2013-12-13 13:36:00,7.4,1.1,30.33,ENE,61,1.0,3.0,75,0.00,,---,0.00,VWS V14.01,2013-12-13 19:36:00,
2013-12-13 13:41:00,7.5,1.0,30.33,East,86,3.0,3.0,74,0.00,,---,0.00,VWS V14.01,2013-12-13 19:41:00,
2013-12-13 13:46:00,7.2,0.7,30.33,NE,35,1.0,3.0,74,0.00,,---,0.00,VWS V14.01,2013-12-13 19:46:00,
2013-12-13 13:51:00,7.4,1.1,30.33,NNE,15,2.0,3.0,75,0.00,,---,0.00,VWS V14.01,2013-12-13 19:51:00,
2013-12-13 13:56:00,7.2,0.7,30.33,ENE,57,1.0,4.0,74,0.00,,---,0.00,VWS V14.01,2013-12-13 19:56:00,
2013-12-13 14:01:00,7.2,1.0,30.33,NE,49,0.0,0.0,75,0.00,,---,0.00,VWS V14.01,2013-12-13 20:01:00,
2013-12-13 14:06:00,7.2,1.0,30.33,ENE,65,2.0,3.0,75,0.00,,---,0.00,VWS V14.01,2013-12-13 20:06:00,
2013-12-13 14:11:00,7.3,1.0,30.33,ENE,76,2.0,3.0,75,0.00,,---,0.00,VWS V14.01,2013-12-13 20:11:00,
2013-12-13 14:16:00,7.3,1.0,30.33,ESE,105,0.0,4.0,75,0.00,,---,0.00,VWS V14.01,2013-12-13 20:16:00,
2013-12-13 14:21:00,7.4,1.1,30.33,ENE,69,2.0,4.0,75,0.00,,---,0.00,VWS V14.01,2013-12-13 20:21:00,
2013-12-13 14:26:00,7.2,0.7,30.33,NNE,29,1.0,4.0,74,0.00,,---,0.00,VWS V14.01,2013-12-13 20:26:00,
2013-12-13 14:32:00,7.2,1.0,30.33,NE,49,1.0,1.0,75,0.00,,---,0.00,VWS V14.01,2013-12-13 20:32:00,
2013-12-13 14:37:00,7.3,1.0,30.33,East,99,1.0,3.0,75,0.00,,---,0.00,VWS V14.01,2013-12-13 20:37:00,
2013-12-13 14:42:00,7.3,1.0,30.33,East,81,1.0,3.0,75,0.00,,---,0.00,VWS V14.01,2013-12-13 20:42:00,
2013-12-13 14:47:00,7.4,1.1,30.33,NE,35,2.0,3.0,75,0.00,,---,0.00,VWS V14.01,2013-12-13 20:47:00,
2013-12-13 14:52:00,7.3,1.0,30.33,WNW,283,0.0,3.0,75,0.00,,---,0.00,VWS V14.01,2013-12-13 20:52:00,
2013-12-13 14:57:00,7.5,1.5,30.33,NNE,20,1.0,3.0,76,0.00,,---,0.00,VWS V14.01,2013-12-13 20:57:00,
2013-12-13 15:02:00,7.3,0.8,30.33,ENE,68,1.0,1.0,74,0.00,,---,0.00,VWS V14.01,2013-12-13 21:02:00,
2013-12-13 15:07:00,7.3,1.0,30.33,ENE,73,0.0,2.0,75,0.00,,---,0.00,VWS V14.01,2013-12-13 21:07:00,
2013-12-13 15:12:00,7.3,1.0,30.33,NE,35,1.0,2.0,75,0.00,,---,0.00,VWS V14.01,2013-12-13 21:12:00,
2013-12-13 15:17:00,7.4,1.1,30.34,ESE,113,1.0,2.0,75,0.00,,---,0.00,VWS V14.01,2013-12-13 21:17:00,
2013-12-13 15:22:00,7.4,0.9,30.34,East,88,1.0,4.0,74,0.00,,---,0.00,VWS V14.01,2013-12-13 21:22:00,
2013-12-13 15:27:00,7.4,1.1,30.34,East,88,1.0,4.0,75,0.00,,---,0.00,VWS V14.01,2013-12-13 21:27:00,
2013-12-13 15:32:00,7.2,0.4,30.35,East,88,0.0,3.0,73,0.00,,---,0.00,VWS V14.01,2013-12-13 21:32:00,
2013-12-13 15:37:00,7.2,0.7,30.35,ENE,63,2.0,3.0,74,0.00,,---,0.00,VWS V14.01,2013-12-13 21:37:00,
2013-12-13 15:42:00,7.2,1.0,30.35,ENE,57,0.0,3.0,75,0.00,,---,0.00,VWS V14.01,2013-12-13 21:42:00,
2013-12-13 15:47:00,7.1,0.9,30.35,ENE,61,1.0,3.0,75,0.00,,---,0.00,VWS V14.01,2013-12-13 21:47:00,
2013-12-13 15:53:00,7.1,1.1,30.35,NE,43,1.0,3.0,76,0.00,,---,0.00,VWS V14.01,2013-12-13 21:53:00,
2013-12-13 15:58:00,7.1,1.1,30.35,ENE,68,0.0,3.0,76,0.00,,---,0.00,VWS V14.01,2013-12-13 21:58:00,
2013-12-13 16:03:00,7.0,1.0,30.35,NE,49,1.0,1.0,76,0.00,,---,0.00,VWS V14.01,2013-12-13 22:03:00,
2013-12-13 16:08:00,7.0,1.3,30.35,ENE,76,0.0,1.0,77,0.00,,---,0.00,VWS V14.01,2013-12-13 22:08:00,
2013-12-13 16:13:00,7.0,1.3,30.35,NNW,336,0.0,2.0,77,0.00,,---,0.00,VWS V14.01,2013-12-13 22:13:00,
2013-12-13 16:18:00,6.9,1.2,30.36,NE,56,2.0,3.0,77,0.00,,---,0.00,VWS V14.01,2013-12-13 22:18:00,
2013-12-13 16:23:00,6.7,1.3,30.36,North,350,1.0,3.0,78,0.00,,---,0.00,VWS V14.01,2013-12-13 22:23:00,
2013-12-13 16:28:00,6.6,1.2,30.36,ENE,63,1.0,3.0,78,0.00,,---,0.00,VWS V14.01,2013-12-13 22:28:00,
2013-12-13 16:33:00,6.4,1.0,30.36,NE,49,1.0,3.0,78,0.00,,---,0.00,VWS V14.01,2013-12-13 22:33:00,
2013-12-13 16:38:00,6.3,0.9,30.36,ENE,75,0.0,3.0,78,0.00,,---,0.00,VWS V14.01,2013-12-13 22:38:00,
2013-12-13 16:43:00,6.2,1.1,30.36,ENE,75,0.0,3.0,79,0.00,,---,0.00,VWS V14.01,2013-12-13 22:43:00,
2013-12-13 16:48:00,6.0,0.9,30.36,ENE,61,0.0,3.0,79,0.00,,---,0.00,VWS V14.01,2013-12-13 22:48:00,
2013-12-13 16:53:00,5.9,0.8,30.36,ENE,61,0.0,3.0,79,0.00,,---,0.00,VWS V14.01,2013-12-13 22:53:00,
2013-12-13 16:58:00,5.8,0.7,30.36,East,86,0.0,3.0,79,0.00,,---,0.00,VWS V14.01,2013-12-13 22:58:00,
2013-12-13 17:03:00,5.7,0.9,30.37,East,96,0.0,0.0,80,0.00,,---,0.00,VWS V14.01,2013-12-13 23:03:00,
2013-12-13 17:08:00,5.5,0.7,30.37,East,95,0.0,0.0,80,0.00,,---,0.00,VWS V14.01,2013-12-13 23:08:00,
2013-12-13 17:13:00,5.4,0.6,30.37,East,95,0.0,0.0,80,0.00,,---,0.00,VWS V14.01,2013-12-13 23:13:00,
2013-12-13 17:19:00,5.3,0.8,30.38,East,84,0.0,0.0,81,0.00,,---,0.00,VWS V14.01,2013-12-13 23:19:00,
2013-12-13 17:24:00,5.3,0.8,30.38,East,85,0.0,0.0,81,0.00,,---,0.00,VWS V14.01,2013-12-13 23:24:00,
2013-12-13 17:29:00,5.3,0.8,30.38,East,84,0.0,0.0,81,0.00,,---,0.00,VWS V14.01,2013-12-13 23:29:00,
2013-12-13 17:34:00,5.2,0.6,30.38,NE,56,0.0,0.0,81,0.00,,---,0.00,VWS V14.01,2013-12-13 23:34:00,
2013-12-13 17:39:00,5.2,0.6,30.38,NE,53,0.0,0.0,81,0.00,,---,0.00,VWS V14.01,2013-12-13 23:39:00,
2013-12-13 17:44:00,5.2,0.6,30.38,NNE,22,0.0,0.0,81,0.00,,---,0.00,VWS V14.01,2013-12-13 23:44:00,
2013-12-13 17:49:00,5.1,0.6,30.38,NNE,20,0.0,0.0,81,0.00,,---,0.00,VWS V14.01,2013-12-13 23:49:00,
2013-12-13 17:54:00,5.1,0.6,30.38,NE,51,0.0,0.0,81,0.00,,---,0.00,VWS V14.01,2013-12-13 23:54:00,
2013-12-13 17:59:00,5.0,0.5,30.38,NE,51,0.0,0.0,81,0.00,,---,0.00,VWS V14.01,2013-12-13 23:59:00,
2013-12-13 18:04:00,5.1,0.6,30.38,NE,51,0.0,0.0,81,0.00,,---,0.00,VWS V14.01,2013-12-14 00:04:00,
2013-12-13 18:09:00,5.0,0.2,30.38,ENE,65,2.0,3.0,80,0.00,,---,0.00,VWS V14.01,2013-12-14 00:09:00,
2013-12-13 18:14:00,5.1,0.3,30.38,East,85,0.0,3.0,80,0.00,,---,0.00,VWS V14.01,2013-12-14 00:14:00,
2013-12-13 18:19:00,5.1,0.3,30.38,East,85,0.0,3.0,80,0.00,,---,0.00,VWS V14.01,2013-12-14 00:19:00,
2013-12-13 18:24:00,5.2,0.4,30.38,NE,46,0.0,3.0,80,0.00,,---,0.00,VWS V14.01,2013-12-14 00:24:00,
2013-12-13 18:29:00,5.3,0.5,30.38,ENE,75,0.0,3.0,80,0.00,,---,0.00,VWS V14.01,2013-12-14 00:29:00,
2013-12-13 18:34:00,5.3,0.2,30.40,ENE,61,0.0,0.0,79,0.00,,---,0.00,VWS V14.01,2013-12-14 00:34:00,
2013-12-13 18:39:00,5.3,0.5,30.40,ENE,61,0.0,0.0,80,0.00,,---,0.00,VWS V14.01,2013-12-14 00:39:00,
2013-12-13 18:44:00,5.3,0.2,30.40,NE,42,1.0,3.0,79,0.00,,---,0.00,VWS V14.01,2013-12-14 00:44:00,
2013-12-13 18:50:00,5.3,0.2,30.39,ENE,61,1.0,3.0,79,0.00,,---,0.00,VWS V14.01,2013-12-14 00:50:00,
2013-12-13 18:55:00,5.3,0.2,30.39,NE,38,0.0,3.0,79,0.00,,---,0.00,VWS V14.01,2013-12-14 00:55:00,
2013-12-13 19:00:00,5.2,0.1,30.39,ENE,60,0.0,3.0,79,0.00,,---,0.00,VWS V14.01,2013-12-14 01:00:00,
2013-12-13 19:05:00,5.1,0.0,30.39,ENE,67,1.0,2.0,79,0.00,,---,0.00,VWS V14.01,2013-12-14 01:05:00,
2013-12-13 19:10:00,5.0,-0.1,30.39,NE,56,0.0,2.0,79,0.00,,---,0.00,VWS V14.01,2013-12-14 01:10:00,
2013-12-13 19:15:00,4.8,-0.3,30.39,East,83,0.0,2.0,79,0.00,,---,0.00,VWS V14.01,2013-12-14 01:15:00,
2013-12-13 19:20:00,4.6,-0.5,30.40,ENE,78,0.0,5.0,79,0.00,,---,0.00,VWS V14.01,2013-12-14 01:20:00,
2013-12-13 19:25:00,4.4,-0.4,30.40,ENE,61,2.0,5.0,80,0.00,,---,0.00,VWS V14.01,2013-12-14 01:25:00,
2013-12-13 19:30:00,4.2,-0.9,30.40,North,355,0.0,5.0,79,0.00,,---,0.00,VWS V14.01,2013-12-14 01:30:00,
2013-12-13 19:35:00,4.0,-0.8,30.40,NE,55,0.0,2.0,80,0.00,,---,0.00,VWS V14.01,2013-12-14 01:35:00,
2013-12-13 19:40:00,3.9,-0.9,30.40,ENE,75,0.0,2.0,80,0.00,,---,0.00,VWS V14.01,2013-12-14 01:40:00,
2013-12-13 19:45:00,3.7,-1.1,30.40,East,87,3.0,3.0,80,0.00,,---,0.00,VWS V14.01,2013-12-14 01:45:00,
2013-12-13 19:50:00,3.6,-1.2,30.40,East,90,0.0,3.0,80,0.00,,---,0.00,VWS V14.01,2013-12-14 01:50:00,
2013-12-13 19:55:00,3.4,-1.4,30.40,NE,52,1.0,3.0,80,0.00,,---,0.00,VWS V14.01,2013-12-14 01:55:00,
2013-12-13 20:00:00,3.3,-1.2,30.40,NE,47,0.0,3.0,81,0.00,,---,0.00,VWS V14.01,2013-12-14 02:00:00,
2013-12-13 20:05:00,3.2,-1.3,30.40,ENE,69,0.0,2.0,81,0.00,,---,0.00,VWS V14.01,2013-12-14 02:05:00,
2013-12-13 20:10:00,3.1,-1.4,30.40,NE,44,0.0,2.0,81,0.00,,---,0.00,VWS V14.01,2013-12-14 02:10:00,
2013-12-13 20:16:00,3.0,-1.5,30.41,East,88,0.0,2.0,81,0.00,,---,0.00,VWS V14.01,2013-12-14 02:16:00,
2013-12-13 20:21:00,2.8,-1.4,30.41,East,86,0.0,2.0,82,0.00,,---,0.00,VWS V14.01,2013-12-14 02:21:00,
2013-12-13 20:26:00,2.8,-1.4,30.41,East,91,0.0,2.0,82,0.00,,---,0.00,VWS V14.01,2013-12-14 02:26:00,
2013-12-13 20:31:00,2.6,-1.6,30.41,ENE,57,2.0,2.0,82,0.00,,---,0.00,VWS V14.01,2013-12-14 02:31:00,
2013-12-13 20:36:00,2.6,-1.6,30.41,ENE,71,0.0,4.0,82,0.00,,---,0.00,VWS V14.01,2013-12-14 02:36:00,
2013-12-13 20:41:00,2.5,-1.7,30.41,ENE,61,0.0,4.0,82,0.00,,---,0.00,VWS V14.01,2013-12-14 02:41:00,
2013-12-13 20:46:00,2.4,-1.8,30.41,NE,47,0.0,4.0,82,0.00,,---,0.00,VWS V14.01,2013-12-14 02:46:00,
2013-12-13 20:51:00,2.3,-1.7,30.41,NE,35,0.0,4.0,83,0.00,,---,0.00,VWS V14.01,2013-12-14 02:51:00,
2013-12-13 20:56:00,2.2,-1.8,30.41,NE,35,0.0,4.0,83,0.00,,---,0.00,VWS V14.01,2013-12-14 02:56:00,
2013-12-13 21:01:00,2.1,-1.9,30.41,NNE,15,0.0,0.0,83,0.00,,---,0.00,VWS V14.01,2013-12-14 03:01:00,
2013-12-13 21:06:00,2.1,-1.9,30.41,ENE,68,0.0,1.0,83,0.00,,---,0.00,VWS V14.01,2013-12-14 03:06:00,
2013-12-13 21:11:00,2.0,-2.0,30.41,ENE,69,0.0,1.0,83,0.00,,---,0.00,VWS V14.01,2013-12-14 03:11:00,
2013-12-13 21:16:00,1.9,-2.1,30.42,ENE,59,0.0,1.0,83,0.00,,---,0.00,VWS V14.01,2013-12-14 03:16:00,
2013-12-13 21:21:00,1.8,-2.2,30.42,ENE,59,0.0,1.0,83,0.00,,---,0.00,VWS V14.01,2013-12-14 03:21:00,
2013-12-13 21:26:00,1.8,-2.2,30.42,ENE,59,0.0,1.0,83,0.00,,---,0.00,VWS V14.01,2013-12-14 03:26:00,
2013-12-13 21:31:00,1.7,-2.3,30.41,NE,47,0.0,0.0,83,0.00,,---,0.00,VWS V14.01,2013-12-14 03:31:00,
2013-12-13 21:37:00,1.7,-2.3,30.41,NE,47,0.0,1.0,83,0.00,,---,0.00,VWS V14.01,2013-12-14 03:37:00,
2013-12-13 21:42:00,1.6,-2.4,30.41,NE,49,0.0,2.0,83,0.00,,---,0.00,VWS V14.01,2013-12-14 03:42:00,
2013-12-13 21:47:00,1.5,-2.2,30.41,NE,49,0.0,2.0,84,0.00,,---,0.00,VWS V14.01,2013-12-14 03:47:00,
2013-12-13 21:52:00,1.5,-2.2,30.41,NE,49,0.0,2.0,84,0.00,,---,0.00,VWS V14.01,2013-12-14 03:52:00,
2013-12-13 21:57:00,1.5,-2.2,30.41,East,83,1.0,2.0,84,0.00,,---,0.00,VWS V14.01,2013-12-14 03:57:00,
2013-12-13 22:02:00,1.5,-2.2,30.42,NE,37,0.0,0.0,84,0.00,,---,0.00,VWS V14.01,2013-12-14 04:02:00,
2013-12-13 22:07:00,1.4,-2.3,30.42,NE,37,0.0,1.0,84,0.00,,---,0.00,VWS V14.01,2013-12-14 04:07:00,
2013-12-13 22:12:00,1.4,-2.3,30.42,East,79,0.0,1.0,84,0.00,,---,0.00,VWS V14.01,2013-12-14 04:12:00,
2013-12-13 22:17:00,1.3,-2.4,30.42,NE,53,0.0,1.0,84,0.00,,---,0.00,VWS V14.01,2013-12-14 04:17:00,
2013-12-13 22:22:00,1.3,-2.4,30.42,NE,51,0.0,1.0,84,0.00,,---,0.00,VWS V14.01,2013-12-14 04:22:00,
2013-12-13 22:27:00,1.2,-2.5,30.42,ENE,67,0.0,1.0,84,0.00,,---,0.00,VWS V14.01,2013-12-14 04:27:00,
2013-12-13 22:32:00,1.1,-2.6,30.42,ENE,67,0.0,0.0,84,0.00,,---,0.00,VWS V14.01,2013-12-14 04:32:00,
2013-12-13 22:37:00,1.0,-2.7,30.42,ENE,66,0.0,1.0,84,0.00,,---,0.00,VWS V14.01,2013-12-14 04:37:00,
2013-12-13 22:42:00,1.0,-2.7,30.42,ENE,68,0.0,1.0,84,0.00,,---,0.00,VWS V14.01,2013-12-14 04:42:00,
2013-12-13 22:47:00,0.9,-2.8,30.42,ENE,69,0.0,1.0,84,0.00,,---,0.00,VWS V14.01,2013-12-14 04:47:00,
2013-12-13 22:52:00,0.9,-2.8,30.42,ENE,69,0.0,1.0,84,0.00,,---,0.00,VWS V14.01,2013-12-14 04:52:00,
2013-12-13 22:57:00,1.0,-2.7,30.42,NE,49,0.0,1.0,84,0.00,,---,0.00,VWS V14.01,2013-12-14 04:57:00,
2013-12-13 23:01:00,0.9,-2.8,30.42,ENE,58,0.0,1.0,84,0.00,,---,0.00,VWS V14.01,2013-12-14 05:01:00,
2013-12-13 23:02:00,0.9,-2.8,30.42,ENE,58,0.0,0.0,84,0.00,,---,0.00,VWS V14.01,2013-12-14 05:02:00,
2013-12-13 23:07:00,0.9,-2.8,30.42,ENE,57,0.0,0.0,84,0.00,,---,0.00,VWS V14.01,2013-12-14 05:07:00,
2013-12-13 23:12:00,1.0,-2.5,30.42,ENE,57,0.0,0.0,85,0.00,,---,0.00,VWS V14.01,2013-12-14 05:12:00,
2013-12-13 23:17:00,0.9,-2.5,30.42,ENE,57,0.0,1.0,85,0.00,,---,0.00,VWS V14.01,2013-12-14 05:17:00,
2013-12-13 23:22:00,1.0,-2.7,30.42,ENE,59,0.0,1.0,84,0.00,,---,0.00,VWS V14.01,2013-12-14 05:22:00,
2013-12-13 23:27:00,1.0,-2.7,30.42,ENE,76,0.0,1.0,84,0.00,,---,0.00,VWS V14.01,2013-12-14 05:27:00,
2013-12-13 23:32:00,1.1,-2.6,30.42,ENE,68,0.0,0.0,84,0.00,,---,0.00,VWS V14.01,2013-12-14 05:32:00,
2013-12-13 23:37:00,1.1,-2.6,30.42,ENE,67,0.0,0.0,84,0.00,,---,0.00,VWS V14.01,2013-12-14 05:37:00,
2013-12-13 23:42:00,1.2,-2.5,30.42,NE,45,0.0,2.0,84,0.00,,---,0.00,VWS V14.01,2013-12-14 05:42:00,
2013-12-13 23:47:00,1.3,-2.7,30.41,East,96,0.0,2.0,83,0.00,,---,0.00,VWS V14.01,2013-12-14 05:47:00,
2013-12-13 23:52:00,1.3,-2.4,30.41,NE,37,0.0,2.0,84,0.00,,---,0.00,VWS V14.01,2013-12-14 05:52:00,
2013-12-13 23:57:00,1.3,-2.4,30.41,East,93,0.0,2.0,84,0.00,,---,0.00,VWS V14.01,2013-12-14 05:57:00,